User: anonymous   Login
Location: Unspecified
(57.6483°N, 3.3184°W)
Time: 09:37:09
(UTC+01:00)
Language:

NO-84 - Orbit

View from above orbital plane
View from above orbital plane
View from above satellite
View from above satellite

Ground track
Ground track

The orbit data is extracted from the following two-line orbital elements,

1 40654U 15025D   21124.61869988  .00023720  00000-0  18569-3 0    28
2 40654  54.9821 248.2045 0080806 310.6606  48.7407 15.67209730   177
Epoch (UTC): 04 May 2021 14:50:55
Eccentricity: 0.0080806
inclination: 54.9821°
perigee height: 312 km
apogee height: 421 km
right ascension of ascending node: 248.2045°
argument of perigee: 310.6606°
revolutions per day: 15.67209730
mean anomaly at epoch: 48.7407°
orbit number at epoch: 17

The dashed part of the orbit path shows where the satellite is in the earth's shadow,  

DLR